Hourly Data Report for October 02, 2017

All times are specified in Local Standard Time (LST). Add 1 hour to adjust for Daylight Saving Time where and when it is observed.

GRAND RAPIDS (AUT)
MANITOBA

53°11'11.064" N
99°16'04.098" W
222.50 m
5031A10
71858
WJD

Download Data

Hourly Data (October 2017)
Hourly Data Report for October 2, 2017
Temp Definition
°C
Dew Point Temp Definition
°C
Rel Hum Definition
%
Wind Dir Definition
10's deg

Wind Spd Definition
km/h
Visibility Definition
km
Stn Press Definition
kPa
Hmdx Definition


Wind Chill Definition


Weather Definition


TIME
00:00 13.6 11.7 88   0   97.49     LegendNANA
01:00 13.5 12.0 91 7 3   97.45     LegendNANA
02:00 13.7 12.4 92 16 4   97.52     LegendNANA
03:00 13.5 12.3 93 14 3   97.52     LegendNANA
04:00 13.5 12.3 93 12 3   97.51     LegendNANA
05:00 12.9 11.8 93 2 3   97.44     LegendNANA
06:00 12.9 11.9 94 6 1   97.47     LegendNANA
07:00 13.5 12.4 93 10 5   97.55     LegendNANA
08:00 13.8 12.6 93 9 6   97.53     LegendNANA
09:00 14.0 12.7 92 9 7   97.49     LegendNANA
10:00 14.3 13.0 92 9 6   97.48     LegendNANA
11:00 13.9 12.7 93 8 7   97.45     LegendNANA
12:00 13.6 12.8 95 8 9   97.45     LegendNANA
13:00 13.5 12.8 95 6 8   97.44     LegendNANA
14:00 13.6 12.9 96 6 9   97.40     LegendNANA
15:00 14.0 13.3 96 12 6   97.40     LegendNANA
16:00 14.0 13.3 96 9 2   97.42     LegendNANA
17:00 13.1 12.2 94 19 15   97.49     LegendNANA
18:00 11.4 10.4 94 21 12   97.61     LegendNANA
19:00 10.1 9.1 94 20 12   97.74     LegendNANA
20:00 9.2 8.1 93 21 12   97.86     LegendNANA
21:00 8.7 7.4 92 20 9   97.97     LegendNANA
22:00 8.6 7.6 94 20 5   98.03     LegendNANA
23:00 8.8 7.7 93 17 4   98.12     LegendNANA

Notes on Data Quality.

Legend

  • E = Estimated
  • M = Missing
  • NA = Not Available
  • ‡ = Partner data that is not subject to review by the National Climate Archives
Date modified: